FLOCK 3R-15 (43736 NORAD) Tracking and Keplerian Element Data

This shows tracking and keplerian element data for the satellite.

Feedback or suggestion? Click here.




ElementValue
Catalog43736
NameFLOCK 3R-15
Epoch Orbit457
Epoch Day363.17657118
Epoch Year2018
RAAN68.236
Inclination97.4818
Eccentricity0.0021216
Argument of Perigee220.2597
Mean Anonmoly139.7071
Mean Motion15.26932034
Decay Rate1.256E-05
L11 43736U 18096T 18363.17657118 .00001256 00000-0 50104-4 0 9992
L22 43736 97.4818 68.2360 0021216 220.2597 139.7071 15.26932034 4575

Live tracking and technical data element details for FLOCK 3R-15 (NORAD 43736). FLOCK 3R-15 can be tracked NOW for your location showing map with azimuth and elevation plus other details from your city location.

Track the satellite on the map from your city or location and see movement details for azimuth, elevation, latitude, longitude, range, height, and movement on the map or in text.







IsCatalogInMostPopularTable: catalog: 43736, numindb: 26
Update: records affected: 1



GetName: 43736 FLOCK 3R-15

Hit Count: updated at: Fri, 18 Jan 2019 22:40:43 GMT